INMARSAT 5-F1

Last updated on Thu Oct 16 2025 00:02:47 GMT+0000 (Coordinated Universal Time)

1 39476U 13073A 25287.92714799 .00000000 00000+0 00000+0 0 9993 2 39476 0.0191 194.0476 0000355 66.3579 159.6947 1.00267006 43125
UTC large
Height (km)
Speed (km/s)
/
Latitude / Longitude
Inclination (degrees)
Orbital Period (minutes)
Azimuth
Elevation
Range (km)
Doppler Factor

Next 0 passes for location: London (51.5072 / 0.1276)

Sorry there are no passes over London.